timestamp,wind_dir_avg,wind_spd_max_dir,wind_spd_avg,wind_spd_gust,battery_voltage,lat,long
2018-10-12 00:00:00+00:00,37.0,37.0,6.56,7.72,,47.59359,-54.27349
2018-10-12 00:10:00+00:00,44.0,52.0,5.72,7.64,,47.59359,-54.27349
2018-10-12 00:20:00+00:00,30.0,33.0,4.84,5.72,,47.59359,-54.27349
2018-10-12 00:30:00+00:00,46.0,49.0,5.19,5.85,,47.59359,-54.27349
2018-10-12 00:40:00+00:00,26.0,26.0,4.68,5.69,,47.59359,-54.27349
2018-10-12 00:50:00+00:00,50.0,47.0,5.73,6.67,,47.59359,-54.27349
2018-10-12 01:00:00+00:00,42.0,49.0,4.89,5.72,,47.59359,-54.27349
2018-10-12 01:10:00+00:00,44.0,42.0,5.74,6.58,,47.59359,-54.27349
2018-10-12 01:20:00+00:00,34.0,48.0,4.9,6.67,,47.59359,-54.27349
2018-10-12 01:30:00+00:00,6.0,5.0,4.5,4.98,,47.59359,-54.27349
2018-10-12 01:40:00+00:00,33.0,34.0,4.43,5.37,,47.59359,-54.27349
2018-10-12 01:50:00+00:00,13.0,358.0,3.56,5.03,,47.59359,-54.27349
2018-10-12 02:00:00+00:00,7.0,5.0,4.19,4.97,,47.59359,-54.27349
2018-10-12 02:10:00+00:00,17.0,14.0,3.85,4.38,,47.59359,-54.27349
2018-10-12 02:20:00+00:00,21.0,19.0,3.14,3.67,,47.59359,-54.27349
2018-10-12 02:30:00+00:00,5.0,5.0,2.4,2.78,,47.59359,-54.27349
2018-10-12 02:40:00+00:00,31.0,29.0,2.66,3.11,,47.59359,-54.27349
2018-10-12 02:50:00+00:00,31.0,36.0,3.69,4.18,,47.59359,-54.27349
2018-10-12 03:00:00+00:00,40.0,32.0,2.07,3.02,,47.59359,-54.27349
2018-10-12 03:10:00+00:00,32.0,25.0,2.61,3.74,,47.59359,-54.27349
2018-10-12 03:20:00+00:00,14.0,15.0,2.82,3.4,,47.59359,-54.27349
2018-10-12 03:30:00+00:00,20.0,26.0,1.75,2.15,,47.59359,-54.27349
2018-10-12 03:40:00+00:00,1.0,357.0,2.91,3.85,,47.59359,-54.27349
2018-10-12 03:50:00+00:00,18.0,15.0,2.8,3.43,,47.59359,-54.27349
2018-10-12 04:00:00+00:00,33.0,39.0,2.54,3.49,,47.59359,-54.27349
2018-10-12 04:10:00+00:00,13.0,7.0,2.71,3.2,,47.59359,-54.27349
2018-10-12 04:20:00+00:00,21.0,13.0,2.74,3.53,,47.59359,-54.27349
2018-10-12 04:30:00+00:00,38.0,32.0,2.51,3.07,,47.59359,-54.27349
2018-10-12 04:40:00+00:00,21.0,20.0,2.86,3.34,,47.59359,-54.27349
2018-10-12 04:50:00+00:00,10.0,10.0,1.65,2.19,,47.59359,-54.27349
2018-10-12 05:00:00+00:00,352.0,350.0,2.53,2.99,,47.59359,-54.27349
2018-10-12 05:10:00+00:00,13.0,357.0,2.93,3.57,,47.59359,-54.27349
2018-10-12 05:20:00+00:00,22.0,352.0,2.56,4.01,,47.59359,-54.27349
2018-10-12 05:30:00+00:00,357.0,355.0,2.62,3.76,,47.59359,-54.27349
2018-10-12 05:40:00+00:00,354.0,3.0,2.83,3.59,,47.59359,-54.27349
2018-10-12 05:50:00+00:00,7.0,9.0,2.06,2.75,,47.59359,-54.27349
2018-10-12 06:00:00+00:00,357.0,354.0,2.7,3.4,,47.59359,-54.27349
2018-10-12 06:10:00+00:00,3.0,6.0,3.3,4.04,,47.59359,-54.27349
2018-10-12 06:20:00+00:00,14.0,15.0,2.66,3.36,,47.59359,-54.27349
2018-10-12 06:30:00+00:00,20.0,24.0,3.64,4.35,,47.59359,-54.27349
2018-10-12 06:40:00+00:00,37.0,44.0,3.44,4.55,,47.59359,-54.27349
2018-10-12 06:50:00+00:00,29.0,35.0,3.25,3.72,,47.59359,-54.27349
2018-10-12 07:00:00+00:00,19.0,13.0,1.89,2.18,,47.59359,-54.27349
2018-10-12 07:10:00+00:00,35.0,39.0,2.4,3.3,,47.59359,-54.27349
2018-10-12 07:20:00+00:00,34.0,51.0,1.86,2.5,,47.59359,-54.27349
2018-10-12 07:30:00+00:00,38.0,33.0,3.08,3.44,,47.59359,-54.27349
2018-10-12 07:40:00+00:00,46.0,65.0,1.45,2.21,,47.59359,-54.27349
2018-10-12 07:50:00+00:00,36.0,40.0,1.91,2.49,,47.59359,-54.27349
2018-10-12 08:00:00+00:00,32.0,56.0,2.6,4.33,,47.59359,-54.27349
2018-10-12 08:10:00+00:00,106.0,121.0,1.13,1.52,,47.59359,-54.27349
2018-10-12 08:20:00+00:00,112.0,117.0,1.21,1.67,,47.59359,-54.27349
2018-10-12 08:30:00+00:00,116.0,117.0,1.43,2.39,,47.59359,-54.27349
2018-10-12 08:40:00+00:00,93.0,101.0,2.33,2.89,,47.59359,-54.27349
2018-10-12 08:50:00+00:00,111.0,125.0,1.93,2.85,,47.59359,-54.27349
2018-10-12 09:00:00+00:00,109.0,107.0,2.34,3.31,,47.59359,-54.27349
2018-10-12 09:10:00+00:00,104.0,103.0,2.48,3.38,,47.59359,-54.27349
2018-10-12 09:20:00+00:00,91.0,86.0,3.33,4.41,,47.59359,-54.27349
2018-10-12 09:30:00+00:00,98.0,102.0,3.41,4.27,,47.59359,-54.27349
2018-10-12 09:40:00+00:00,88.0,87.0,3.33,4.73,,47.59359,-54.27349
2018-10-12 09:50:00+00:00,127.0,121.0,3.85,5.2,,47.59359,-54.27349
2018-10-12 10:00:00+00:00,125.0,128.0,2.05,2.86,,47.59359,-54.27349
2018-10-12 10:10:00+00:00,135.0,132.0,3.77,4.55,,47.59359,-54.27349
2018-10-12 10:20:00+00:00,150.0,150.0,4.12,4.79,,47.59359,-54.27349
2018-10-12 10:30:00+00:00,136.0,136.0,3.44,4.57,,47.59359,-54.27349
2018-10-12 10:40:00+00:00,147.0,143.0,4.31,5.39,,47.59359,-54.27349
2018-10-12 10:50:00+00:00,145.0,141.0,3.32,4.02,,47.59359,-54.27349
2018-10-12 11:00:00+00:00,142.0,145.0,4.86,5.44,,47.59359,-54.27349
2018-10-12 11:10:00+00:00,145.0,156.0,5.39,6.7,,47.59359,-54.27349
2018-10-12 11:20:00+00:00,143.0,135.0,4.61,5.55,,47.59359,-54.27349
2018-10-12 11:30:00+00:00,135.0,132.0,4.79,5.53,,47.59359,-54.27349
2018-10-12 11:40:00+00:00,132.0,128.0,3.57,4.85,,47.59359,-54.27349
2018-10-12 11:50:00+00:00,166.0,185.0,2.61,3.43,,47.59359,-54.27349
2018-10-12 12:00:00+00:00,169.0,168.0,2.57,3.75,,47.59359,-54.27349
2018-10-12 12:10:00+00:00,146.0,144.0,4.51,5.31,,47.59359,-54.27349
2018-10-12 12:20:00+00:00,166.0,147.0,3.5,4.49,,47.59359,-54.27349
2018-10-12 12:30:00+00:00,168.0,167.0,3.66,4.84,,47.59359,-54.27349
2018-10-12 12:40:00+00:00,163.0,157.0,4.59,5.38,,47.59359,-54.27349
2018-10-12 12:50:00+00:00,152.0,157.0,4.02,4.69,,47.59359,-54.27349
2018-10-12 13:00:00+00:00,155.0,147.0,3.9,5.05,,47.59359,-54.27349
2018-10-12 13:10:00+00:00,150.0,154.0,4.27,5.05,,47.59359,-54.27349
2018-10-12 13:20:00+00:00,150.0,154.0,3.76,4.56,,47.59359,-54.27349
2018-10-12 13:30:00+00:00,134.0,128.0,4.09,4.72,,47.59359,-54.27349
2018-10-12 13:40:00+00:00,136.0,134.0,4.38,5.01,,47.59359,-54.27349
2018-10-12 13:50:00+00:00,144.0,142.0,4.58,5.26,,47.59359,-54.27349
2018-10-12 14:00:00+00:00,153.0,150.0,4.31,5.49,,47.59359,-54.27349
2018-10-12 14:10:00+00:00,144.0,143.0,4.57,5.61,,47.59359,-54.27349
2018-10-12 14:20:00+00:00,138.0,131.0,4.58,5.19,,47.59359,-54.27349
2018-10-12 14:30:00+00:00,150.0,149.0,4.59,5.51,,47.59359,-54.27349
2018-10-12 14:40:00+00:00,149.0,149.0,5.38,6.35,,47.59359,-54.27349
2018-10-12 14:50:00+00:00,154.0,147.0,5.89,6.74,,47.59359,-54.27349
2018-10-12 15:00:00+00:00,155.0,153.0,6.44,7.55,,47.59359,-54.27349
2018-10-12 15:10:00+00:00,162.0,177.0,6.02,6.74,,47.59359,-54.27349
2018-10-12 15:20:00+00:00,175.0,178.0,5.95,6.75,,47.59359,-54.27349
2018-10-12 15:30:00+00:00,165.0,162.0,6.24,7.6,,47.59359,-54.27349
2018-10-12 15:40:00+00:00,159.0,166.0,6.83,8.27,,47.59359,-54.27349
2018-10-12 15:50:00+00:00,168.0,170.0,6.21,6.91,,47.59359,-54.27349
2018-10-12 16:00:00+00:00,162.0,170.0,7.74,9.02,,47.59359,-54.27349
2018-10-12 16:10:00+00:00,158.0,164.0,7.47,8.29,,47.59359,-54.27349
2018-10-12 16:20:00+00:00,160.0,152.0,7.97,9.7,,47.59359,-54.27349
2018-10-12 16:30:00+00:00,138.0,137.0,6.16,7.4,,47.59359,-54.27349
2018-10-12 16:40:00+00:00,149.0,153.0,7.33,8.53,,47.59359,-54.27349
2018-10-12 16:50:00+00:00,155.0,145.0,8.01,9.3,,47.59359,-54.27349
2018-10-12 17:00:00+00:00,155.0,161.0,8.55,9.62,,47.59359,-54.27349
2018-10-12 17:10:00+00:00,148.0,154.0,7.83,8.93,,47.59359,-54.27349
2018-10-12 17:20:00+00:00,134.0,125.0,7.38,10.42,,47.59359,-54.27349
2018-10-12 17:30:00+00:00,145.0,150.0,7.83,8.92,,47.59359,-54.27349
2018-10-12 17:40:00+00:00,140.0,139.0,6.73,8.05,,47.59359,-54.27349
2018-10-12 17:50:00+00:00,134.0,128.0,6.27,8.01,,47.59359,-54.27349
2018-10-12 18:00:00+00:00,131.0,137.0,6.1,6.78,,47.59359,-54.27349
2018-10-12 18:10:00+00:00,131.0,134.0,5.62,7.03,,47.59359,-54.27349
2018-10-12 18:20:00+00:00,126.0,129.0,4.5,6.17,,47.59359,-54.27349
2018-10-12 18:30:00+00:00,127.0,134.0,5.37,7.55,,47.59359,-54.27349
2018-10-12 18:40:00+00:00,131.0,133.0,6.84,8.03,,47.59359,-54.27349
2018-10-12 18:50:00+00:00,121.0,139.0,4.15,6.15,,47.59359,-54.27349
2018-10-12 19:00:00+00:00,102.0,106.0,4.5,7.2,,47.59359,-54.27349
2018-10-12 19:10:00+00:00,106.0,90.0,4.22,7.59,,47.59359,-54.27349
2018-10-12 19:20:00+00:00,111.0,141.0,4.36,6.76,,47.59359,-54.27349
2018-10-12 19:30:00+00:00,111.0,109.0,5.63,9.42,,47.59359,-54.27349
2018-10-12 19:40:00+00:00,111.0,110.0,5.71,8.77,,47.59359,-54.27349
2018-10-12 19:50:00+00:00,113.0,119.0,4.67,8.37,,47.59359,-54.27349
2018-10-12 20:00:00+00:00,114.0,132.0,4.54,6.76,,47.59359,-54.27349
2018-10-12 20:10:00+00:00,111.0,134.0,5.63,8.74,,47.59359,-54.27349
2018-10-12 20:20:00+00:00,113.0,81.0,5.12,8.77,,47.59359,-54.27349
2018-10-12 20:30:00+00:00,102.0,112.0,4.32,6.7,,47.59359,-54.27349
2018-10-12 20:40:00+00:00,111.0,104.0,5.35,8.6,,47.59359,-54.27349
2018-10-12 20:50:00+00:00,106.0,105.0,6.69,12.87,,47.59359,-54.27349
2018-10-12 21:00:00+00:00,102.0,120.0,4.96,10.1,,47.59359,-54.27349
2018-10-12 21:10:00+00:00,112.0,125.0,4.88,8.54,,47.59359,-54.27349
2018-10-12 21:20:00+00:00,117.0,133.0,4.81,7.81,,47.59359,-54.27349
2018-10-12 21:30:00+00:00,126.0,145.0,4.52,6.89,,47.59359,-54.27349
2018-10-12 21:40:00+00:00,127.0,141.0,5.59,8.7,,47.59359,-54.27349
2018-10-12 21:50:00+00:00,133.0,135.0,7.26,8.79,,47.59359,-54.27349
2018-10-12 22:00:00+00:00,128.0,140.0,7.0,12.02,,47.59359,-54.27349
2018-10-12 22:10:00+00:00,133.0,128.0,7.8,9.21,,47.59359,-54.27349
2018-10-12 22:20:00+00:00,138.0,138.0,9.33,11.16,,47.59359,-54.27349
2018-10-12 22:30:00+00:00,128.0,137.0,7.11,9.55,,47.59359,-54.27349
2018-10-12 22:40:00+00:00,137.0,139.0,8.85,10.68,,47.59359,-54.27349
2018-10-12 22:50:00+00:00,132.0,128.0,8.54,11.15,,47.59359,-54.27349
2018-10-12 23:00:00+00:00,116.0,89.0,3.98,6.03,,47.59359,-54.27349
2018-10-12 23:10:00+00:00,112.0,118.0,6.75,10.03,,47.59359,-54.27349
2018-10-12 23:20:00+00:00,109.0,141.0,5.16,8.38,,47.59359,-54.27349
2018-10-12 23:30:00+00:00,109.0,121.0,5.96,8.48,,47.59359,-54.27349
2018-10-12 23:40:00+00:00,112.0,116.0,4.6,8.64,,47.59359,-54.27349
2018-10-12 23:50:00+00:00,112.0,110.0,5.16,8.79,,47.59359,-54.27349
